Terug naar catalogus

THORAD AGENA D DEB

ActiefPO
NORAD 5220·DEBRIS·🇺🇸 United States

Gelanceerd Apr 8, 1970 vanaf Vandenberg Space Force Base

Loading…

Volgende Passages (komende 24 uur)

TLE

VersSource: Space-Track

Epoch: Sep 12, 2026, 22:37 UTC

1  5220U 70025KG  26255.94292778  .00000113  00000-0  39987-3 0  9995
2  5220  99.8309 128.7789 0380740 169.3227 205.6346 12.92638950642837

Volg THORAD AGENA D DEB in realtime met AllMySat

Download on the App Store